TimeEDT,TemperatureF,Dew PointF,Humidity,Sea Level PressureIn,VisibilityMPH,Wind Direction,Wind SpeedMPH,Gust SpeedMPH,PrecipitationIn,Events,Conditions,WindDirDegrees,DateUTC
12:35 AM,48.2,48.2,100,28.51,2.5,ESE,21.9,38.0,0.01,Rain,Light Rain,120,2012-10-30 04:35:00
12:55 AM,48.2,48.2,100,28.56,1.8,SE,18.4,27.6,0.01,Rain,Light Rain,130,2012-10-30 04:55:00
1:15 AM,46.4,46.4,100,28.61,1.8,SE,21.9,36.8,0.02,Rain,Light Rain,130,2012-10-30 05:15:00
1:35 AM,46.4,46.4,100,28.66,2.5,SE,20.7,32.2,0.05,Rain,Rain,130,2012-10-30 05:35:00
1:55 AM,46.4,46.4,100,28.70,3.0,SE,17.3,38.0,0.08,Rain,Light Rain,130,2012-10-30 05:55:00
2:15 AM,46.4,44.6,93,28.74,5.0,SE,18.4,32.2,N/A,Rain,Light Rain,130,2012-10-30 06:15:00
2:35 AM,44.6,44.6,100,28.78,3.0,SE,13.8,29.9,0.06,,Overcast,140,2012-10-30 06:35:00
3:15 AM,44.6,44.6,100,28.84,4.0,SE,20.7,33.4,0.03,,Unknown,140,2012-10-30 07:15:00
3:35 AM,44.6,42.8,93,28.86,5.0,SE,20.7,26.5,0.06,,Overcast,140,2012-10-30 07:35:00
3:55 AM,44.6,42.8,93,28.89,5.0,SE,12.7,26.5,0.09,,Overcast,140,2012-10-30 07:55:00
4:35 AM,42.8,42.8,100,28.94,4.0,SE,15.0,27.6,0.03,,Unknown,140,2012-10-30 08:35:00
4:55 AM,42.8,41.0,93,28.97,4.0,SE,13.8,26.5,0.03,,Unknown,140,2012-10-30 08:55:00
5:15 AM,42.8,41.0,93,28.99,3.0,SSE,13.8,24.2,N/A,,Unknown,150,2012-10-30 09:15:00
5:35 AM,42.8,41.0,93,29.01,2.5,SE,10.4,21.9,N/A,,Unknown,140,2012-10-30 09:35:00
5:55 AM,42.8,41.0,93,29.03,2.5,SE,16.1,21.9,0.01,,Unknown,140,2012-10-30 09:55:00
6:15 AM,42.8,41.0,93,29.05,4.0,SSE,9.2,19.6,N/A,,Unknown,150,2012-10-30 10:15:00
6:35 AM,42.8,41.0,93,29.06,7.0,SE,9.2,21.9,N/A,,Overcast,140,2012-10-30 10:35:00
6:55 AM,42.8,41.0,93,29.08,9.0,SSE,11.5,20.7,N/A,,Overcast,150,2012-10-30 10:55:00
7:15 AM,42.8,41.0,93,29.10,9.0,SSE,10.4,20.7,N/A,,Overcast,150,2012-10-30 11:15:00
7:35 AM,42.8,41.0,93,29.11,5.0,SE,9.2,24.2,N/A,,Overcast,140,2012-10-30 11:35:00
7:55 AM,42.8,41.0,93,29.13,4.0,SSE,11.5,18.4,N/A,,Overcast,150,2012-10-30 11:55:00
8:15 AM,42.8,41.0,93,29.15,5.0,SE,9.2,16.1,N/A,Rain,Light Rain,140,2012-10-30 12:15:00
8:35 AM,42.8,42.8,100,29.16,4.0,SSE,11.5,18.4,0.02,,Overcast,150,2012-10-30 12:35:00
8:55 AM,42.8,41.0,93,29.18,5.0,SSE,8.1,16.1,0.03,Rain,Light Rain,150,2012-10-30 12:55:00
9:35 AM,42.8,42.8,100,29.19,4.0,SE,11.5,21.9,N/A,Rain,Light Rain,140,2012-10-30 13:35:00
9:55 AM,42.8,42.8,100,29.21,4.0,SSE,9.2,19.6,0.01,,Overcast,150,2012-10-30 13:55:00
10:15 AM,42.8,42.8,100,29.22,3.0,SSE,8.1,-,N/A,,Overcast,160,2012-10-30 14:15:00
10:35 AM,42.8,42.8,100,29.23,5.0,SSE,6.9,-,0.01,Rain,Light Rain,150,2012-10-30 14:35:00
10:55 AM,42.8,42.8,100,29.24,5.0,SSE,12.7,23.0,0.01,,Unknown,150,2012-10-30 14:55:00
11:35 AM,42.8,41.0,93,29.27,5.0,SSE,11.5,19.6,N/A,,Unknown,150,2012-10-30 15:35:00
11:55 AM,42.8,41.0,93,29.28,8.0,SSE,6.9,16.1,N/A,,Overcast,150,2012-10-30 15:55:00
12:15 PM,42.8,41.0,93,29.28,10.0,SSE,11.5,20.7,N/A,,Unknown,150,2012-10-30 16:15:00
12:35 PM,42.8,41.0,93,29.29,10.0,SSE,8.1,17.3,N/A,,Overcast,150,2012-10-30 16:35:00
12:55 PM,42.8,41.0,93,29.30,10.0,SE,9.2,17.3,N/A,,Overcast,130,2012-10-30 16:55:00
1:15 PM,42.8,41.0,93,29.31,10.0,SSE,9.2,-,N/A,,Unknown,150,2012-10-30 17:15:00
1:35 PM,42.8,39.2,87,29.31,5.0,SSE,8.1,-,N/A,Rain,Light Rain,150,2012-10-30 17:35:00
1:55 PM,42.8,39.2,87,29.32,3.0,South,4.6,-,0.02,Rain,Light Rain,180,2012-10-30 17:55:00
2:15 PM,41.0,39.2,93,29.32,5.0,SSE,8.1,-,N/A,Rain,Light Rain,160,2012-10-30 18:15:00
2:35 PM,41.0,39.2,93,29.33,5.0,SSE,5.8,-,0.01,Rain,Light Rain,160,2012-10-30 18:35:00
2:55 PM,41.0,39.2,93,29.34,7.0,SSE,5.8,-,0.01,,Overcast,160,2012-10-30 18:55:00
3:35 PM,41.0,39.2,93,29.35,8.0,SSE,5.8,-,N/A,,Overcast,150,2012-10-30 19:35:00
3:55 PM,41.0,39.2,93,29.36,3.0,SSE,6.9,-,N/A,Rain,Light Rain,150,2012-10-30 19:55:00
4:15 PM,41.0,39.2,93,29.37,4.0,SSE,4.6,-,N/A,Rain,Light Rain,160,2012-10-30 20:15:00
4:35 PM,41.0,39.2,93,29.38,4.0,SSE,8.1,-,0.01,Rain,Light Rain,150,2012-10-30 20:35:00
4:55 PM,41.0,39.2,93,29.38,2.5,SSE,5.8,-,0.04,Rain,Light Rain,160,2012-10-30 20:55:00
5:35 PM,39.2,39.2,100,29.40,4.0,SSE,6.9,-,0.01,Rain,Light Rain,150,2012-10-30 21:35:00
5:55 PM,39.2,39.2,100,29.41,4.0,SSE,4.6,-,0.02,,Overcast,150,2012-10-30 21:55:00
6:15 PM,39.2,39.2,100,29.42,4.0,SE,4.6,-,N/A,Rain,Light Rain,140,2012-10-30 22:15:00
6:35 PM,39.2,39.2,100,29.43,5.0,SSE,3.5,-,0.02,Rain,Light Rain,150,2012-10-30 22:35:00
7:15 PM,39.2,39.2,100,29.44,6.0,SE,5.8,-,N/A,,Overcast,140,2012-10-30 23:15:00
7:35 PM,39.2,37.4,93,29.45,5.0,SE,4.6,-,N/A,,Overcast,140,2012-10-30 23:35:00
8:15 PM,39.2,39.2,100,29.45,7.0,SE,4.6,-,N/A,Rain,Light Rain,140,2012-10-31 00:15:00
8:35 PM,39.2,39.2,100,29.46,5.0,SE,4.6,-,N/A,Rain,Light Rain,130,2012-10-31 00:35:00
8:55 PM,39.2,39.2,100,29.46,8.0,SE,8.1,-,N/A,Rain,Light Rain,140,2012-10-31 00:55:00
9:15 PM,39.2,39.2,100,29.46,6.0,SSE,5.8,-,N/A,,Mostly Cloudy,150,2012-10-31 01:15:00
9:35 PM,39.2,39.2,100,29.46,6.0,SE,4.6,-,N/A,,Overcast,140,2012-10-31 01:35:00
9:55 PM,39.2,39.2,100,29.47,6.0,SSE,3.5,-,N/A,Rain,Light Rain,150,2012-10-31 01:55:00
10:15 PM,39.2,39.2,100,29.47,5.0,SSE,3.5,-,N/A,Rain,Light Rain,150,2012-10-31 02:15:00
10:35 PM,39.2,39.2,100,29.47,5.0,SSE,4.6,-,N/A,,Overcast,150,2012-10-31 02:35:00
11:15 PM,39.2,39.2,100,29.47,7.0,Calm,Calm,-,N/A,,Overcast,0,2012-10-31 03:15:00
11:35 PM,39.2,39.2,100,29.47,7.0,Calm,Calm,-,N/A,,Overcast,0,2012-10-31 03:35:00
11:55 PM,39.2,39.2,100,29.47,5.0,SSE,3.5,-,N/A,,Overcast,150,2012-10-31 03:55:00